Time,TemperatureF,DewpointF,PressureIn,WindDirection,WindDirectionDegrees,WindSpeedMPH,WindSpeedGustMPH,Humidity,HourlyPrecipIn,Conditions,Clouds,dailyrainin,SoftwareType,DateUTC
2013-01-10 00:02:00,39.0,-99.9,29.95,SSE,154,4.0,9.0,-999,-99.99,,,-99.99,,2013-01-10 08:02:00,
2013-01-10 00:12:00,39.0,-99.9,29.95,SE,143,4.0,7.0,-999,-99.99,,,-99.99,,2013-01-10 08:12:00,
2013-01-10 00:22:00,39.0,-99.9,29.96,SSE,153,3.0,6.0,-999,-99.99,,,-99.99,,2013-01-10 08:22:00,
2013-01-10 00:33:00,39.0,-99.9,29.96,SSE,165,5.0,7.0,-999,-99.99,,,-99.99,,2013-01-10 08:33:00,
2013-01-10 00:42:00,40.0,-99.9,29.96,South,170,3.0,7.0,-999,-99.99,,,-99.99,,2013-01-10 08:42:00,
2013-01-10 00:53:00,39.0,-99.9,29.96,South,176,5.0,8.0,-999,-99.99,,,-99.99,,2013-01-10 08:53:00,
2013-01-10 01:02:00,39.0,-99.9,29.95,South,174,5.0,8.0,-999,-99.99,,,-99.99,,2013-01-10 09:02:00,
2013-01-10 01:12:00,39.0,-99.9,29.95,South,180,5.0,9.0,-999,-99.99,,,-99.99,,2013-01-10 09:12:00,
2013-01-10 01:22:00,40.0,-99.9,29.96,SSW,201,4.0,9.0,-999,-99.99,,,-99.99,,2013-01-10 09:22:00,
2013-01-10 01:32:00,40.0,-99.9,29.96,SSW,212,8.0,10.0,-999,-99.99,,,-99.99,,2013-01-10 09:32:00,
2013-01-10 01:43:00,40.0,-99.9,29.96,SSW,211,6.0,9.0,-999,-99.99,,,-99.99,,2013-01-10 09:43:00,
2013-01-10 01:53:00,39.0,-99.9,29.96,WSW,241,6.0,7.0,-999,-99.99,,,-99.99,,2013-01-10 09:53:00,
2013-01-10 02:03:00,39.0,-99.9,29.96,SSW,209,4.0,7.0,-999,-99.99,,,-99.99,,2013-01-10 10:03:00,
2013-01-10 02:12:00,39.0,-99.9,29.97,SW,235,6.0,9.0,-999,-99.99,,,-99.99,,2013-01-10 10:12:00,
2013-01-10 02:22:00,38.0,-99.9,29.97,SW,226,7.0,8.0,-999,-99.99,,,-99.99,,2013-01-10 10:22:00,
2013-01-10 02:33:00,38.0,-99.9,29.98,SW,230,4.0,8.0,-999,-99.99,,,-99.99,,2013-01-10 10:33:00,
2013-01-10 02:43:00,38.0,-99.9,29.98,WSW,238,6.0,8.0,-999,-99.99,,,-99.99,,2013-01-10 10:43:00,
2013-01-10 02:53:00,38.0,-99.9,29.98,SW,231,4.0,6.0,-999,-99.99,,,-99.99,,2013-01-10 10:53:00,
2013-01-10 03:03:00,38.0,-99.9,29.98,SSW,192,3.0,5.0,-999,-99.99,,,-99.99,,2013-01-10 11:03:00,
2013-01-10 03:12:00,38.0,-99.9,29.98,SW,217,4.0,5.0,-999,-99.99,,,-99.99,,2013-01-10 11:12:00,
2013-01-10 03:23:00,38.0,-99.9,29.99,WSW,243,2.0,6.0,-999,-99.99,,,-99.99,,2013-01-10 11:23:00,
2013-01-10 03:33:00,38.0,-99.9,29.99,WSW,247,3.0,5.0,-999,-99.99,,,-99.99,,2013-01-10 11:33:00,
2013-01-10 03:43:00,38.0,-99.9,29.99,North,-999,-999.0,-999.0,-999,-99.99,,,-99.99,,2013-01-10 11:43:00,
2013-01-10 03:53:00,38.0,-99.9,29.99,North,-999,-999.0,-999.0,-999,-99.99,,,-99.99,,2013-01-10 11:53:00,
2013-01-10 04:03:00,38.0,-99.9,29.99,WSW,242,2.0,3.0,-999,-99.99,,,-99.99,,2013-01-10 12:03:00,
2013-01-10 04:12:00,38.0,-99.9,30.00,SW,220,2.0,2.0,-999,-99.99,,,-99.99,,2013-01-10 12:12:00,
2013-01-10 04:22:00,38.0,-99.9,30.00,SSW,196,3.0,4.0,-999,-99.99,,,-99.99,,2013-01-10 12:22:00,
2013-01-10 04:33:00,38.0,-99.9,29.99,SW,224,5.0,9.0,-999,-99.99,,,-99.99,,2013-01-10 12:33:00,
2013-01-10 04:43:00,37.0,-99.9,29.99,SW,225,6.0,9.0,-999,-99.99,,,-99.99,,2013-01-10 12:43:00,
2013-01-10 04:53:00,37.0,-99.9,30.00,SW,222,6.0,8.0,-999,-99.99,,,-99.99,,2013-01-10 12:53:00,
2013-01-10 05:02:00,37.0,-99.9,29.99,SSW,210,6.0,7.0,-999,-99.99,,,-99.99,,2013-01-10 13:02:00,
2013-01-10 05:12:00,37.0,-99.9,30.00,SSW,211,5.0,7.0,-999,-99.99,,,-99.99,,2013-01-10 13:12:00,
2013-01-10 05:22:00,37.0,-99.9,30.00,SSW,211,3.0,6.0,-999,-99.99,,,-99.99,,2013-01-10 13:22:00,
2013-01-10 05:33:00,37.0,-99.9,30.00,SW,228,5.0,6.0,-999,-99.99,,,-99.99,,2013-01-10 13:33:00,
2013-01-10 05:42:00,37.0,-99.9,30.01,WSW,237,3.0,6.0,-999,-99.99,,,-99.99,,2013-01-10 13:42:00,
2013-01-10 05:53:00,37.0,-99.9,30.01,SW,218,4.0,5.0,-999,-99.99,,,-99.99,,2013-01-10 13:53:00,
2013-01-10 06:03:00,37.0,-99.9,30.01,SW,224,5.0,6.0,-999,-99.99,,,-99.99,,2013-01-10 14:03:00,
2013-01-10 06:12:00,37.0,-99.9,30.01,South,189,1.0,6.0,-999,-99.99,,,-99.99,,2013-01-10 14:12:00,
2013-01-10 06:23:00,37.0,-99.9,30.01,SSW,209,2.0,6.0,-999,-99.99,,,-99.99,,2013-01-10 14:23:00,
2013-01-10 06:33:00,37.0,-99.9,30.02,SSW,208,6.0,7.0,-999,-99.99,,,-99.99,,2013-01-10 14:33:00,
2013-01-10 06:43:00,37.0,-99.9,30.02,SSW,212,6.0,9.0,-999,-99.99,,,-99.99,,2013-01-10 14:43:00,
2013-01-10 06:53:00,37.0,-99.9,30.03,SSW,208,5.0,7.0,-999,-99.99,,,-99.99,,2013-01-10 14:53:00,
2013-01-10 07:03:00,37.0,-99.9,30.03,South,173,3.0,6.0,-999,-99.99,,,-99.99,,2013-01-10 15:03:00,
2013-01-10 07:12:00,37.0,-99.9,30.04,South,178,2.0,4.0,-999,-99.99,,,-99.99,,2013-01-10 15:12:00,
2013-01-10 07:23:00,37.0,-99.9,30.04,South,178,1.0,5.0,-999,-99.99,,,-99.99,,2013-01-10 15:23:00,
2013-01-10 07:33:00,37.0,-99.9,30.04,SW,224,5.0,7.0,-999,-99.99,,,-99.99,,2013-01-10 15:33:00,
2013-01-10 07:43:00,37.0,-99.9,30.05,SW,225,4.0,7.0,-999,-99.99,,,-99.99,,2013-01-10 15:43:00,
2013-01-10 07:53:00,37.0,-99.9,30.05,SW,224,4.0,8.0,-999,-99.99,,,-99.99,,2013-01-10 15:53:00,
2013-01-10 08:03:00,37.0,-99.9,30.06,WSW,237,5.0,7.0,-999,-99.99,,,-99.99,,2013-01-10 16:03:00,
2013-01-10 08:13:00,37.0,-99.9,30.06,SW,226,5.0,7.0,-999,-99.99,,,-99.99,,2013-01-10 16:13:00,
2013-01-10 08:23:00,36.0,-99.9,30.06,South,175,4.0,6.0,-999,-99.99,,,-99.99,,2013-01-10 16:23:00,
2013-01-10 08:33:00,36.0,-99.9,30.06,South,177,5.0,6.0,-999,-99.99,,,-99.99,,2013-01-10 16:33:00,
2013-01-10 08:43:00,37.0,-99.9,30.07,South,188,2.0,8.0,-999,-99.99,,,-99.99,,2013-01-10 16:43:00,
2013-01-10 08:53:00,37.0,-99.9,30.07,SSW,207,4.0,6.0,-999,-99.99,,,-99.99,,2013-01-10 16:53:00,
2013-01-10 09:03:00,36.0,-99.9,30.08,SW,220,6.0,8.0,-999,-99.99,,,-99.99,,2013-01-10 17:03:00,
2013-01-10 09:12:00,37.0,-99.9,30.08,SSW,206,5.0,8.0,-999,-99.99,,,-99.99,,2013-01-10 17:12:00,
2013-01-10 09:23:00,37.0,-99.9,30.08,SSW,206,5.0,8.0,-999,-99.99,,,-99.99,,2013-01-10 17:23:00,
2013-01-10 09:33:00,37.0,-99.9,30.09,SSW,212,4.0,6.0,-999,-99.99,,,-99.99,,2013-01-10 17:33:00,
2013-01-10 09:43:00,36.0,-99.9,30.09,SSW,213,7.0,8.0,-999,-99.99,,,-99.99,,2013-01-10 17:43:00,
2013-01-10 09:53:00,36.0,-99.9,30.09,SSW,196,4.0,7.0,-999,-99.99,,,-99.99,,2013-01-10 17:53:00,
2013-01-10 10:04:00,37.0,-99.9,30.09,SSW,205,5.0,8.0,-999,-99.99,,,-99.99,,2013-01-10 18:04:00,
2013-01-10 10:12:00,36.0,-99.9,30.09,South,186,4.0,6.0,-999,-99.99,,,-99.99,,2013-01-10 18:12:00,
2013-01-10 10:23:00,36.0,-99.9,30.09,SSW,193,1.0,6.0,-999,-99.99,,,-99.99,,2013-01-10 18:23:00,
2013-01-10 10:33:00,36.0,-99.9,30.09,SW,231,4.0,7.0,-999,-99.99,,,-99.99,,2013-01-10 18:33:00,
2013-01-10 10:44:00,36.0,-99.9,30.10,SW,220,6.0,7.0,-999,-99.99,,,-99.99,,2013-01-10 18:44:00,
2013-01-10 10:53:00,36.0,-99.9,30.10,SW,215,5.0,8.0,-999,-99.99,,,-99.99,,2013-01-10 18:53:00,
2013-01-10 11:03:00,37.0,-99.9,30.10,SW,217,5.0,6.0,-999,-99.99,,,-99.99,,2013-01-10 19:03:00,
2013-01-10 11:13:00,36.0,-99.9,30.09,WSW,237,3.0,4.0,-999,-99.99,,,-99.99,,2013-01-10 19:13:00,
2013-01-10 11:23:00,37.0,-99.9,30.09,SSW,196,2.0,4.0,-999,-99.99,,,-99.99,,2013-01-10 19:23:00,
2013-01-10 11:33:00,37.0,-99.9,30.09,SW,221,3.0,5.0,-999,-99.99,,,-99.99,,2013-01-10 19:33:00,
2013-01-10 11:44:00,37.0,-99.9,30.09,SW,215,3.0,5.0,-999,-99.99,,,-99.99,,2013-01-10 19:44:00,
2013-01-10 11:53:00,37.0,-99.9,30.08,SW,220,3.0,4.0,-999,-99.99,,,-99.99,,2013-01-10 19:53:00,
2013-01-10 12:03:00,38.0,-99.9,30.08,West,276,2.0,3.0,-999,-99.99,,,-99.99,,2013-01-10 20:03:00,
2013-01-10 12:13:00,37.0,-99.9,30.08,WNW,287,3.0,4.0,-999,-99.99,,,-99.99,,2013-01-10 20:13:00,
2013-01-10 12:24:00,37.0,-99.9,30.08,WNW,295,4.0,6.0,-999,-99.99,,,-99.99,,2013-01-10 20:24:00,
2013-01-10 12:33:00,38.0,-99.9,30.08,West,260,7.0,9.0,-999,-99.99,,,-99.99,,2013-01-10 20:33:00,
2013-01-10 12:43:00,38.0,-99.9,30.07,WSW,247,7.0,10.0,-999,-99.99,,,-99.99,,2013-01-10 20:43:00,
2013-01-10 12:53:00,38.0,-99.9,30.07,WSW,251,5.0,7.0,-999,-99.99,,,-99.99,,2013-01-10 20:53:00,
2013-01-10 13:04:00,38.0,-99.9,30.07,West,264,5.0,6.0,-999,-99.99,,,-99.99,,2013-01-10 21:04:00,
2013-01-10 13:13:00,38.0,-99.9,30.06,West,272,4.0,6.0,-999,-99.99,,,-99.99,,2013-01-10 21:13:00,
2013-01-10 13:23:00,38.0,-99.9,30.06,WNW,282,6.0,7.0,-999,-99.99,,,-99.99,,2013-01-10 21:23:00,
2013-01-10 13:33:00,38.0,-99.9,30.07,West,262,6.0,8.0,-999,-99.99,,,-99.99,,2013-01-10 21:33:00,
2013-01-10 13:44:00,38.0,-99.9,30.07,West,278,7.0,8.0,-999,-99.99,,,-99.99,,2013-01-10 21:44:00,
2013-01-10 13:53:00,39.0,-99.9,30.07,WNW,291,9.0,12.0,-999,-99.99,,,-99.99,,2013-01-10 21:53:00,
2013-01-10 14:04:00,39.0,-99.9,30.08,WNW,298,9.0,13.0,-999,-99.99,,,-99.99,,2013-01-10 22:04:00,
2013-01-10 14:13:00,39.0,-99.9,30.08,WNW,297,7.0,11.0,-999,-99.99,,,-99.99,,2013-01-10 22:13:00,
2013-01-10 14:27:00,39.0,-99.9,30.08,WNW,284,10.0,11.0,-999,-99.99,,,-99.99,,2013-01-10 22:27:00,
2013-01-10 14:34:00,39.0,-99.9,30.08,WNW,286,9.0,12.0,-999,-99.99,,,-99.99,,2013-01-10 22:34:00,
2013-01-10 14:44:00,39.0,-99.9,30.08,WNW,296,8.0,13.0,-999,-99.99,,,-99.99,,2013-01-10 22:44:00,
2013-01-10 15:13:00,40.0,-99.9,30.08,WNW,295,10.0,14.0,-999,-99.99,,,-99.99,,2013-01-10 23:13:00,
2013-01-10 15:23:00,40.0,-99.9,30.08,NW,305,7.0,13.0,-999,-99.99,,,-99.99,,2013-01-10 23:23:00,
2013-01-10 15:33:00,40.0,-99.9,30.08,NW,308,12.0,14.0,-999,-99.99,,,-99.99,,2013-01-10 23:33:00,
2013-01-10 15:43:00,40.0,-99.9,30.08,NW,318,11.0,13.0,-999,-99.99,,,-99.99,,2013-01-10 23:43:00,
2013-01-10 15:53:00,40.0,-99.9,30.08,NW,307,11.0,15.0,-999,-99.99,,,-99.99,,2013-01-10 23:53:00,
2013-01-10 16:03:00,40.0,-99.9,30.09,NW,317,5.0,12.0,-999,-99.99,,,-99.99,,2013-01-11 00:03:00,
2013-01-10 16:13:00,40.0,-99.9,30.09,WNW,302,8.0,13.0,-999,-99.99,,,-99.99,,2013-01-11 00:13:00,
2013-01-10 16:23:00,40.0,-99.9,30.09,NW,309,11.0,14.0,-999,-99.99,,,-99.99,,2013-01-11 00:23:00,
2013-01-10 16:33:00,40.0,-99.9,30.09,WNW,303,9.0,13.0,-999,-99.99,,,-99.99,,2013-01-11 00:33:00,
2013-01-10 16:43:00,40.0,-99.9,30.09,NW,304,10.0,11.0,-999,-99.99,,,-99.99,,2013-01-11 00:43:00,
2013-01-10 16:53:00,40.0,-99.9,30.09,NW,309,6.0,12.0,-999,-99.99,,,-99.99,,2013-01-11 00:53:00,
2013-01-10 17:03:00,40.0,-99.9,30.09,NW,314,4.0,8.0,-999,-99.99,,,-99.99,,2013-01-11 01:03:00,
2013-01-10 17:13:00,40.0,-99.9,30.09,NW,319,7.0,10.0,-999,-99.99,,,-99.99,,2013-01-11 01:13:00,
2013-01-10 17:24:00,40.0,-99.9,30.09,NW,316,9.0,12.0,-999,-99.99,,,-99.99,,2013-01-11 01:24:00,
2013-01-10 17:34:00,40.0,-99.9,30.09,WNW,297,7.0,9.0,-999,-99.99,,,-99.99,,2013-01-11 01:34:00,
2013-01-10 17:43:00,40.0,-99.9,30.09,WNW,282,9.0,10.0,-999,-99.99,,,-99.99,,2013-01-11 01:43:00,
2013-01-10 17:53:00,39.0,-99.9,30.09,West,275,8.0,11.0,-999,-99.99,,,-99.99,,2013-01-11 01:53:00,
2013-01-10 18:03:00,39.0,-99.9,30.09,WNW,288,8.0,11.0,-999,-99.99,,,-99.99,,2013-01-11 02:03:00,
2013-01-10 18:13:00,40.0,-99.9,30.09,NW,309,9.0,12.0,-999,-99.99,,,-99.99,,2013-01-11 02:13:00,
2013-01-10 18:24:00,39.0,-99.9,30.09,WNW,286,9.0,10.0,-999,-99.99,,,-99.99,,2013-01-11 02:24:00,
2013-01-10 18:33:00,40.0,-99.9,30.09,West,279,6.0,10.0,-999,-99.99,,,-99.99,,2013-01-11 02:33:00,
2013-01-10 18:44:00,40.0,-99.9,30.09,NNW,330,2.0,7.0,-999,-99.99,,,-99.99,,2013-01-11 02:44:00,
2013-01-10 18:54:00,40.0,-99.9,30.09,NNW,327,2.0,5.0,-999,-99.99,,,-99.99,,2013-01-11 02:54:00,
2013-01-10 19:03:00,40.0,-99.9,30.09,WNW,299,4.0,9.0,-999,-99.99,,,-99.99,,2013-01-11 03:03:00,
2013-01-10 19:13:00,40.0,-99.9,30.09,NNW,341,4.0,8.0,-999,-99.99,,,-99.99,,2013-01-11 03:13:00,
2013-01-10 19:23:00,40.0,-99.9,30.09,NNW,334,5.0,8.0,-999,-99.99,,,-99.99,,2013-01-11 03:23:00,
2013-01-10 19:34:00,40.0,-99.9,30.09,NNW,334,3.0,6.0,-999,-99.99,,,-99.99,,2013-01-11 03:34:00,
2013-01-10 19:43:00,40.0,-99.9,30.09,NNW,331,3.0,6.0,-999,-99.99,,,-99.99,,2013-01-11 03:43:00,
2013-01-10 19:53:00,40.0,-99.9,30.09,NW,309,5.0,7.0,-999,-99.99,,,-99.99,,2013-01-11 03:53:00,
2013-01-10 20:03:00,39.0,-99.9,30.09,NW,316,4.0,6.0,-999,-99.99,,,-99.99,,2013-01-11 04:03:00,
2013-01-10 20:12:00,39.0,-99.9,30.09,NNE,32,0.0,4.0,-999,-99.99,,,-99.99,,2013-01-11 04:12:00,
2013-01-10 20:23:00,39.0,-99.9,30.09,NW,324,1.0,4.0,-999,-99.99,,,-99.99,,2013-01-11 04:23:00,
2013-01-10 20:33:00,39.0,-99.9,30.09,NNW,335,1.0,7.0,-999,-99.99,,,-99.99,,2013-01-11 04:33:00,
2013-01-10 20:43:00,39.0,-99.9,30.10,NW,322,5.0,7.0,-999,-99.99,,,-99.99,,2013-01-11 04:43:00,
2013-01-10 20:53:00,39.0,-99.9,30.10,NW,319,6.0,7.0,-999,-99.99,,,-99.99,,2013-01-11 04:53:00,
2013-01-10 21:04:00,38.0,-99.9,30.10,NW,324,4.0,6.0,-999,-99.99,,,-99.99,,2013-01-11 05:04:00,
2013-01-10 21:13:00,39.0,-99.9,30.10,NW,320,4.0,6.0,-999,-99.99,,,-99.99,,2013-01-11 05:13:00,
2013-01-10 21:23:00,39.0,-99.9,30.10,NW,318,2.0,5.0,-999,-99.99,,,-99.99,,2013-01-11 05:23:00,
2013-01-10 21:33:00,39.0,-99.9,30.11,NW,304,5.0,6.0,-999,-99.99,,,-99.99,,2013-01-11 05:33:00,
2013-01-10 21:43:00,38.0,-99.9,30.11,NNW,332,4.0,6.0,-999,-99.99,,,-99.99,,2013-01-11 05:43:00,
2013-01-10 21:53:00,38.0,-99.9,30.11,NNW,331,5.0,6.0,-999,-99.99,,,-99.99,,2013-01-11 05:53:00,
2013-01-10 22:03:00,38.0,-99.9,30.11,NNW,329,2.0,5.0,-999,-99.99,,,-99.99,,2013-01-11 06:03:00,
2013-01-10 22:12:00,38.0,-99.9,30.11,NNW,348,2.0,6.0,-999,-99.99,,,-99.99,,2013-01-11 06:12:00,
2013-01-10 22:22:00,38.0,-99.9,30.11,NNW,327,3.0,7.0,-999,-99.99,,,-99.99,,2013-01-11 06:22:00,
2013-01-10 22:33:00,38.0,-99.9,30.11,NNW,334,2.0,6.0,-999,-99.99,,,-99.99,,2013-01-11 06:33:00,
2013-01-10 22:42:00,38.0,-99.9,30.11,NNW,336,4.0,9.0,-999,-99.99,,,-99.99,,2013-01-11 06:42:00,
2013-01-10 22:52:00,38.0,-99.9,30.11,NNW,341,4.0,6.0,-999,-99.99,,,-99.99,,2013-01-11 06:52:00,
2013-01-10 23:02:00,38.0,-99.9,30.11,North,353,4.0,6.0,-999,-99.99,,,-99.99,,2013-01-11 07:02:00,
2013-01-10 23:12:00,38.0,-99.9,30.11,North,1,2.0,4.0,-999,-99.99,,,-99.99,,2013-01-11 07:12:00,
2013-01-10 23:22:00,38.0,-99.9,30.11,SW,224,3.0,5.0,-999,-99.99,,,-99.99,,2013-01-11 07:22:00,
2013-01-10 23:32:00,36.0,-99.9,30.12,SSE,156,3.0,4.0,-999,-99.99,,,-99.99,,2013-01-11 07:32:00,
2013-01-10 23:42:00,36.0,-99.9,30.13,South,169,3.0,5.0,-999,-99.99,,,-99.99,,2013-01-11 07:42:00,
2013-01-10 23:53:00,35.0,-99.9,30.13,SSE,158,4.0,5.0,-999,-99.99,,,-99.99,,2013-01-11 07:53:00,